Powrót do katalogu

STARLINK-37396

AktywnyŁącznośćVLEO
NORAD 69256·PAYLOAD·🇺🇸 United States

Wystrzelony May 30, 2026 z Cape Canaveral Space Force Station

Loading…

Następne Przeloty (najbliższe 24 godziny)

TLE

ŚwieżeSource: CelesTrak SupGP

Epoka: Sep 14, 2026, 22:58 UTC

1 69256C 26117U   26257.95743056 -.00072298  00000+0 -21355-2 0  2570
2 69256  53.1581 179.3182 0001366  94.7311 154.5088 15.34434409    14

Śledź STARLINK-37396 w czasie rzeczywistym z AllMySat

Download on the App Store